Regional Weather Roundup
Issued by NWS

Home | Current Version | Previous Version | Text Only | Print | Product List | Glossary On
Versions: 1 2 3 4 5 6 7 8 9 10 11 12 13 14 15 16 17 18 19 20 21 22 23 24 25 26 27 28 29 30 31 32 33 34 35 36 37 38 39 40 41 42 43 44 45 46 47 48 49 50
000
ASUS43 KTOP 111508
RWRKS

WEATHER ROUNDUP FOR KANSAS
NATIONAL WEATHER SERVICE GOODLAND KS
900 AM CST SUN DEC 11 2016

NOTE:  "FAIR" INDICATES FEW OR NO CLOUDS BELOW 12,000 FEET WITH NO
SIGNIFICANT WEATHER AND/OR OBSTRUCTIONS TO VISIBILITY.

KSZ001>006-013>018-027>032-041>047-111600-
NORTHWEST KANSAS

CITY           SKY/WX    TMP DP  RH WIND       PRES   REMARKS
GOODLAND       CLOUDY    31  22  69 N20       29.86R WCI  19
HAYS           CLOUDY    29  25  85 N23G29    29.80R WCI  15
HILL CITY      MOSUNNY   28  20  71 N18G28    29.87R WCI  15
RUSSELL        CLOUDY    29  26  89 N23       29.78R WCI  15
$$

KSZ061>065-074>080-084>089-111600-
SOUTHWEST KANSAS

CITY           SKY/WX    TMP DP  RH WIND       PRES   REMARKS
DODGE CITY     CLOUDY    32  27  81 N22G32    29.76R WCI  19
ELKHART          N/A     39  22  50 N12         N/A  WCI  32
GARDEN CITY    CLOUDY    33  27  78 N24G31    29.80R WCI  20
GREAT BEND     CLOUDY    31  28  89 NW16      29.76R WCI  20
LIBERAL        CLOUDY    39  28  65 NW22      29.78R WCI  29
PRATT          CLOUDY    31  30  95 N16       29.74R WCI  20
$$

KSZ066>073-081>083-090>101-111600-
SOUTHEAST KANSAS

CITY           SKY/WX    TMP DP  RH WIND       PRES   REMARKS
CHANUTE        CLOUDY    45  41  86 S14       29.76F
COFFEYVILLE    CLOUDY    47  41  80 S12       29.79R
HUTCHINSON     CLOUDY    42  39  89 N10       29.73R
MEDICINE LODGE   N/A     36  35  96 N8        29.71R
NEWTON         CLOUDY    47  44  90 SW9       29.72R
PARSONS        CLOUDY    47  40  76 S9        29.79S
WICHITA INTL   PTSUNNY   46  44  93 SW5       29.70R
WICHITA JABRA  PTSUNNY   49  46  90 SW9       29.70R
WICHITA MCCONL MOSUNNY   48  45  89 SW7       29.70R
WINFIELD       CLOUDY    54  48  80 SW15      29.71S
$$

KSZ007>012-019>026-033>040-048>060-102>105-111600-
NORTHEAST KANSAS

CITY           SKY/WX    TMP DP  RH WIND       PRES   REMARKS
CONCORDIA      CLOUDY    31  28  89 NW17      29.77R WCI  19
EMPORIA        CLOUDY    46  42  86 S12       29.72R
LAWRENCE       CLOUDY    45  39  79 S9        29.75S
MANHATTAN      CLOUDY    41  35  79 CALM      29.75R
MARYSVILLE     CLOUDY    36  32  87 NW6       29.77R
OLATHE IND     CLOUDY    45  38  76 S12       29.76R
OLATHE EXE     CLOUDY    44  37  76 S10       29.76R
SALINA         CLOUDY    39  35  86 N8        29.75R
TOPEKA BILLARD CLOUDY    45  36  70 SE6       29.74S
TOPEKA FORBES  CLOUDY    46  37  71 S9        29.73S
$$




USA.gov is the U.S. government's official web portal to all federal, state and local government web resources and services.